www.pogodaiklimat.ru

ПОГОДА в Фуллертоне, CA

  • Прогноз погоды в Фуллертоне
  • Монитор погоды в Фуллертоне
  • Климат в Фуллертоне

АРХИВ ПОГОДЫ в Фуллертоне

Время (UTC), дата Ветер
(напр.,м/с)
 
Видим.   Явления Облачность Т
(С)
Тd
(С)
f
(%)
Тe
(С)
Тes
(С)
Комфортность

P
(гПа)

Po
(гПа)
Тmin
(С)
Tmax
(С)
R
(мм)
SD
(см)
08:50 23.03   16 км    8/8 660 м  +12.0  +8.0  76  +12  +12      1017.4         
08:53 23.03   16 км    8/8 660 м  +12.2  +8.3  77  +12  +12    1020.9  1017.4         
09:53 23.03   16 км    10/10 690 м  +12.2  +8.3  77  +12  +12    1020.6  1017.0         
10:53 23.03 В  16 км    10/10 660 м  +12.8  +8.9  77  +11  +11    1020.3  1017.0  +11.7  +13.9     
11:53 23.03 В  16 км    10/10 660 м  +12.2  +8.3  77  +11  +11    1020.3  1016.7         
12:53 23.03 В  16 км    10/10 690 м  +12.8  +8.9  77  +12  +12    1020.7  1017.0         
13:53 23.03 В  16 км    10/10 840 м  +13.3  +8.9  75  +13  +13    1020.8  1017.4         
14:53 23.03 В  16 км    10/10 840 м  +13.9  +8.9  72  +14  +14    1021.3  1017.7         
15:08 23.03 В  16 км    10/10 900 м  +14.4  +8.9  70  +14  +14      1018.0         
15:53 23.03   16 км    10/10 900 м  +15.6  +9.4  67  +15  +15    1021.8  1018.4         
16:49 23.03   16 км    10/10 780 м  +16.0  +9.0  63  +16  +16      1018.0         
16:53 23.03   16 км    10/10 780 м  +16.1  +8.9  62  +16  +16    1021.6  1018.0  +12.2  +16.1     
17:15 23.03 нст  16 км    5/5 780 м  +17.2  +8.9  58  +17  +23      1018.0         
17:53 23.03 С  16 км    8/8 1200 м  +18.3  +8.3  52  +19  +22    1021.3  1017.7         
18:53 23.03 ЮЗ  16 км    8/8 1110 м  +17.8  +7.8  52  +18  +20    1021.1  1017.7         
19:53 23.03 нст  16 км    5/5 1140 м  +18.9  +9.4  54  +20  +25    1020.2  1016.7         
20:53 23.03 Ю  16 км    8/8 1110 м
[средняя] 
+19.4  +9.4  52  +20  +22    1020.1  1016.7         
21:53 23.03 ЮЗ  16 км    8/5 1200 м
[средняя] 
+18.3  +8.9  54  +18  +19    1019.6  1016.0         
22:53 23.03 ЮЗ  16 км    8/8 1200 м
[средняя] 
+18.3  +9.4  56  +19  +20    1019.0  1015.7  +16.1  +19.4     
23:53 23.03 нст  16 км    8/8 1110 м  +18.3  +8.9  54  +19  +19    1019.1  1015.7         
00:53 24.03 нст  16 км    8/8 1020 м
[средняя] 
+17.2  +10.0  63  +17  +17    1019.5  1016.0         
01:53 24.03 З  16 км    5/2 1050 м
[средняя] 
+16.1  +10.0  67  +15  +15    1019.9  1016.4         
02:53 24.03 нст  16 км    5/5 510 м  +15.0  +10.6  75  +15  +15    1020.5  1017.0         
03:33 24.03   16 км    8/8 600 м  +15.0  +10.6  75  +15  +15      1017.0         
03:53 24.03   16 км    5/5 600 м  +14.4  +10.6  78  +14  +14    1020.4  1017.0         
04:14 24.03   16 км    8/8 600 м  +14.4  +10.6  78  +14  +14      1016.7         
04:53 24.03   16 км    10/10 600 м  +15.0  +10.6  75  +15  +15    1020.4  1017.0  +14.4  +20.0     
05:53 24.03 Ю  16 км    8/8 600 м  +14.4  +11.1  81  +14  +14    1020.2  1016.7         
06:53 24.03 Ю  16 км    10/10 600 м  +14.4  +11.1  81  +14  +14    1020.3  1016.7         
07:53 24.03 Ю  16 км    10/10 660 м  +14.4  +11.7  84  +14  +14    1020.4  1017.0         
08:53 24.03   16 км    8/8 390 м  +13.9  +10.6  80  +14  +14    1020.5  1017.0         
09:53 24.03 В  16 км    8/8 480 м  +14.4  +11.1  81  +14  +14    1020.3  1016.7         
10:43 24.03 В  16 км    8/8 540 м  +13.9  +10.6  80  +13  +13      1016.4         
10:51 24.03 В  16 км    8/8 540 м  +14.0  +11.0  82  +13  +13      1016.4         
10:53 24.03 В  16 км    5/5 540 м  +13.9  +10.6  80  +14  +14    1020.0  1016.7  +13.9  +15.0     
11:05 24.03 В  16 км    8/8 600 м  +13.9  +10.6  80  +14  +14      1016.4         
11:23 24.03   16 км    5/5 600 м  +13.3  +10.6  84  +13  +13      1016.7         
11:53 24.03 В  16 км    ясно  +12.8  +10.0  83  +12  +12    1020.1  1016.7         
12:53 24.03   16 км    ясно  +11.7  +8.9  83  +11  +11    1020.8  1017.4         
13:53 24.03   16 км    ясно  +13.3  +10.0  80  +13  +13    1021.8  1018.4         
14:53 24.03   16 км    8/2 600 м
[средняя] 
+15.6  +10.6  72  +15  +16    1022.1  1018.7         
15:53 24.03 нст  16 км    8/8 600 м
[средняя] 
+16.7  +10.0  65  +17  +17    1022.1  1018.7         
16:53 24.03   16 км    8/8 660 м  +17.2  +8.9  58  +17  +20    1022.3  1018.7  +11.7  +17.8     
17:05 24.03   16 км    5/5 810 м  +17.8  +9.4  58  +18  +26      1018.7         
17:28 24.03   16 км    8/8 600 м
[средняя] 
+18.3  +8.3  52  +18  +22      1018.7         
17:51 24.03 нст  16 км    5/5 750 м  +19.0  +8.0  49  +20  +27      1018.4         
17:53 24.03 нст  16 км    5/5 750 м  +18.3  +8.3  52  +19  +26    1021.9  1018.4         
18:53 24.03 СВ  16 км    5/5 900 м  +20.6  +8.3  45  +23  +31  комфорт  1021.3  1017.7         

 

Местоположение метеостанции Fullerton Municipal Airport: широта 33.8719 долгота -117.9847 высота над уровнем моря 29 м.

В архиве по умолчанию представлена погода в Фуллертоне за последние 1-2 суток. Обновление информации о фактической погоде в базе происходит ежечасно! Архивные данные за месяц целиком и за предыдущие месяцы Вы можете получить, выбрав интересующий диапазон дат из раскрывающегося списка и нажав кнопку "Ввод!".

Внимание! Архив погоды МЕТАР в базе сайта хранится не более 60 дней. Нет смысла пытаться выбрать более раннюю дату.

Внимание! Время в таблицах - всемирное. Для получения местного времени необходимо прибавить поправку, которая в Фуллертоне равна -8 ч.

Ветер - указаны скорость ветра в м/с и направление, откуда дует ветер: С - северный, СВ - северо-восточный, В - восточный, ЮВ - юго-восточный, Ю - южный, ЮЗ - юго-западный, З - западный, СЗ - северо-западный.
Видимость - горизонтальная дальность видимости в метрах или километрах. При видимости от 1 до 10 км при отсутствии осадков обычно наблюдается дымка, при ухудшении видимости до 1 км и менее - туман. В сухую погоду видимость может ухудшаться дымом, пылью или мглою.
Атмосферные явления - указаны явления, наблюдавшиеся в указанный момент времени.
Облачность - указаны через наклонную черту верхняя и нижняя облачность в баллах и высота нижней границы облаков в метрах. Внимание: облачность, как и прочие метеорологические величины в США измеряются автоматическими метеостанциями. Указанные значения в баллах носят условный характер и показывают процент времени, в течение которого, в среднем, лазерный луч высотомера отражался от облаков обратно.
T - Температура воздуха - температура, измеренная на высоте 2 м над землей.
Td - Температура точки росы - температура, при понижении до которой содержащийся в воздухе водяной пар достигнет насыщения.
f - Относительная влажность воздуха - влажноcть воздуха, измеренная на высоте 2 м над землей.
Te - Эффективная температура - температура, которую ощущает одетый по сезону человек в тени. Характеристика душности погоды. При расчете учитывается влияние влажности воздуха и скорости ветра на теплоощущения человека.
Tes - Эффективная температура на солнце - температура, которую ощущает человек, с поправкой на солнечный нагрев. Характеристика знойности погоды. Зависит от высоты солнца над горизонтом, облачности и скорости ветра. Ночью, в пасмурную погоду, а также при ветре 12 м/с и более поправка равна нулю.
P - Атмосферное давление - приведенное к уровню моря атмосферное давление.
Po - Атмосферное давление - измеренное на уровне метеостанции атмосферное давление.
Tmin - Минимальная температура - минимум температуры воздуха на высоте 2 м над землей.
Tmax - Максимальная температура - максимум температуры воздуха на высоте 2 м над землей.
R - Количество осадков - Количество выпавших осадков за 3 или 6 часов, мм.
SD - Снежный покров - Высота снежного покрова, см.